Regional Weather Roundup
Issued by NWS Newport/Morehead, NC

Current Version | Previous Version | Graphics & Text | Print | Product List | Glossary Off
Versions: 1 2 3 4 5 6 7 8 9 10 11 12 13 14 15 16 17 18 19 20 21 22 23 24 25 26 27 28 29 30 31 32 33 34 35 36 37 38 39 40 41 42 43 44 45 46 47 48 49 50

000
ASUS42 KMHX 011213
RWRMHX
WEATHER ROUNDUP FOR EASTERN NORTH CAROLINA
NATIONAL WEATHER SERVICE NEWPORT/MOREHEAD CITY NC
800 AM EDT WED JUL 01 2015

NOTE: "FAIR" INDICATES FEW OR NO CLOUDS BELOW 12,000 FEET
WITH NO SIGNIFICANT WEATHER AND/OR OBSTRUCTIONS TO VISIBILITY

NCZ015>017-031-032-045>047-102-103-011300-
NORTH COAST

CITY           SKY/WX    TMP DP  RH WIND       PRES   REMARKS
EDENTON        SUNNY     75  67  77 W15       29.93R
ELIZABETH CITY MOSUNNY   76  67  73 SW12      29.92R
KITTY HAWK     SUNNY     80  72  75 SW8       29.91S
MANTEO         SUNNY     79  71  76 SW13      29.92S

$$

NCZ045>047-081-094-103-104-011300-
CENTRAL COAST

CITY           SKY/WX    TMP DP  RH WIND       PRES   REMARKS
FRISCO         MOSUNNY   77  72  84 W12       29.95S
SWANQUARTER      N/A     79 N/A N/A SW13      29.91S

$$

NCZ095-097-098-100-101-011300-
SOUTHERN COAST

CITY           SKY/WX    TMP DP  RH WIND       PRES   REMARKS
BEAUFORT       SUNNY     78  69  73 SW12      29.96S
CEDAR ISLAND     N/A     77 N/A N/A SW6G13    30.00S
JACKSONVILLE   SUNNY     73  67  81 W13       29.96R
PINEY ISLAND   SUNNY    N/A N/A N/A SW12      29.95S
WILMINGTON     SUNNY     75  68  78 SW13      29.98R


$$

NCZ011>013-027>030-043-044-078>080-089-090>093-098-011300-
COASTAL PLAIN

CITY           SKY/WX    TMP DP  RH WIND       PRES   REMARKS
AHOSKIE        MOSUNNY   70  68  93 S3        29.93S
CLINTON        CLOUDY    71  70  98 W5        29.98R FOG
ELIZABETHTOWN  CLOUDY    71  70  98 W3        29.98R FOG
GOLDSBORO      CLOUDY    72  69  92 SW8       29.95R
GREENVILLE     CLOUDY    73  70  88 W9        29.97S
HAVELOCK       SUNNY     76  67  73 SW12      29.96S
KENANSVILLE    CLOUDY    71  67  89 W6        29.99R
KINSTON        NOT AVBL
NEW BERN       SUNNY     74  68  81 SW9       29.97R
RICHLANDS      CLOUDY    72  64  78 SW9G16    29.98R
ROCKY MOUNT    PTSUNNY   72  68  87 SW8       29.95R
WASHINGTON     PTSUNNY   73  67  83 W13       29.95R
WHITEVILLE     CLOUDY    71  69  91 SW6       29.98R

$$

AMZ130-135-150-152-154-156-158-170-250-252-270-ANZ085-086-088-633-658-670-011300-
MARINE OBSERVATIONS

STATION/POSITION TIME  TEMP    WIND        PRES    WAVE   SWELL
                       AIR SEA DIR/SP/G            HT/PER HT/PER
                 (UTC) (F)     (DEG/KT/KT) (MB)    (FT/S) (FT/S)
CHESAPEAKE LIGHT 1200   75     240/ 15/ 18 1013.1
64 E VA BEACH    1150   78 76  210/ 12/ 16 1012.1    5/ 6   3/ 6
DUCK             1100   78 60  210/ 13/ 19 1011.9
2 E DUCK         1111      65                N/A     2/ 8
OREGON INLET     1100   80 81  220/ 15/ 16 1013.3
13E OREGON INLT  1200      73                N/A     5/ 7
HATTERAS CG      1100   76 81  210/ 10/ 14 1013.8
DIAMOND BUOY     1150   81 82  220/ 16/ 19 1013.9    6/ 6   2/12
CAPE LOOKOUT     1200   80     260/ 16/ 19 1014.7
BEAUFORT LAB     1100   78 80  250/  5/  9 1013.8
30 SE NEW RVR IN 1108   80 81  260/ 17/ 23 1015.1
27 SE WRIGHTSVLE 1100      80  250/ 16/ 19   N/A
5 SE WRIGHTSVLE  NOT AVBL
225 S CAPE HAT   1150   82 80  240/ 17/ 21 1018.3    7/ 8   2/13
41 SE CHARLESTON 1150   80 82  240/ 17/ 19 1015.9    4/ 8   2/ 8

$$


USA.gov is the U.S. government's official web portal to all federal, state and local government web resources and services.